Flag for Australia Weather past 2 weeks in Alice Springs, Northern Territory, Australia

Now
46 °F

Clear.


Feels Like: 46 °F
Forecast: 40 / 75 °F
Wind: No wind

Location: Alice Springs Aerodrome

Current Time: Aug 23, 2014 at 12:19:38 AM

Latest Report: Aug 22, 2014 at 11:30 PM


Visibility: N/A

Pressure: 30.21 "Hg

Humidity: 32%

Dew point: 18 °F

Location of Alice SpringsLocation

Historic Weather in Alice Springs — Graph

°F

Alice Springs temperature yesterday

Maximum temperature yesterday: 73 °F (at 2:30 PM)
Minimum temperature yesterday: 34 °F (at 5:30 AM)
Average temperature yesterday: 55 °F

Past Weeks' High & Low Weather Summary

 TemperatureHumidityPressure
High73 °F (Aug 8, 4:00 PM)87% (Aug 17, 6:30 AM)30.45 "Hg (Aug 17, 6:30 AM)
Low30 °F (Aug 14, 4:30 AM)8% (Aug 22, 1:00 PM)30.07 "Hg (Aug 20, 3:30 PM)
Average51 °F38%30.25 "Hg
* Reported Aug 7 10:30 PM — Aug 22 11:00 PM, Alice Springs, Weather by CustomWeather, © 2014

Note: Actual official high and low records may vary slightly from our data, if they occured in-between our weather recording intervals... More about our weather records

Advertising

Alice Springs weather history for previous 24 hours

 ConditionsComfort  
Time TempWeatherWind HumidityBarometerVisibility
11:00 PM
Aug 22
50 °FClear.No wind30%30.21 "HgN/A
10:30 PM50 °FClear.No wind30%30.21 "HgN/A
10:00 PM52 °FClear.No wind28%30.21 "HgN/A
9:30 PM52 °FClear.5 mph30%30.21 "HgN/A
9:00 PM57 °FClear.7 mph25%30.21 "HgN/A
8:30 PM57 °FClear.7 mph21%30.21 "HgN/A
8:00 PM59 °FClear.7 mph20%30.18 "HgN/A
7:30 PM59 °FClear.8 mph20%30.18 "HgN/A
7:00 PM61 °FClear.8 mph19%30.15 "HgN/A
6:30 PM66 °FClear.8 mph14%30.15 "HgN/A
6:00 PM70 °FClear.9 mph12%30.15 "HgN/A
5:30 PM72 °FSunny.13 mph11%30.12 "HgN/A
5:00 PM73 °FSunny.12 mph10%30.12 "Hg10 mi
4:30 PM73 °FSunny.14 mph9%30.12 "Hg10 mi
3:30 PM73 °FPassing clouds.12 mph9%30.12 "HgN/A
3:00 PM73 °FPassing clouds.10 mph9%30.12 "HgN/A
2:30 PM73 °FSunny.12 mph9%30.12 "Hg10 mi
2:00 PM72 °FSunny.12 mph8%30.15 "Hg10 mi
1:30 PM72 °FPassing clouds.8 mph11%30.15 "HgN/A
1:00 PM70 °FPassing clouds.10 mph8%30.18 "HgN/A
12:30 PM68 °FPassing clouds.6 mph13%30.18 "HgN/A
12:00 PM66 °FSunny.8 mph14%30.21 "Hg10 mi
11:30 AM64 °FPassing clouds.8 mph18%30.21 "HgN/A
11:00 AM64 °FPassing clouds.9 mph18%30.24 "HgN/A
10:30 AM63 °FPassing clouds.10 mph20%30.24 "HgN/A
10:00 AM61 °FPassing clouds.8 mph23%30.24 "HgN/A
9:30 AM59 °FSunny.No wind25%30.24 "Hg10 mi
9:00 AM55 °FSunny.No wind31%30.24 "Hg10 mi
8:30 AM50 °FSunny.No wind32%30.24 "Hg10 mi
8:00 AM45 °FSunny.5 mph39%30.24 "Hg10 mi
7:30 AM39 °FSunny.6 mph48%30.21 "Hg10 mi
7:00 AM36 °FSunny.7 mph52%30.21 "Hg10 mi
6:30 AM37 °FSunny.6 mph48%30.18 "Hg10 mi
6:00 AM36 °FClear.5 mph52%30.18 "Hg10 mi
5:30 AM34 °FClear.6 mphN/A30.18 "HgN/A
5:00 AM36 °FClear.2 mphN/A30.18 "HgN/A
4:30 AM37 °FClear.1 mph60%30.15 "HgN/A
3:30 AM39 °FClear.6 mph52%30.18 "HgN/A
3:00 AM41 °FClear.6 mph45%30.18 "HgN/A
2:30 AM39 °FClear.6 mph45%30.18 "HgN/A
2:00 AM39 °FClear.5 mph48%30.21 "HgN/A
1:30 AM41 °FClear.5 mph45%30.21 "HgN/A
12:30 AM41 °FClear.3 mph45%30.21 "HgN/A
Weather by CustomWeather, © 2014

See weather overviewHow to use our weather pages